Home   Weather   Yorkton   Past weeks

Flag for Canada Past Weather in Yorkton, Saskatchewan, Canada — Yesterday and Last 2 Weeks

Now
27 °F

Low clouds.


Feels Like: 19 °F
Forecast: 18 / 25 °F
Wind: 7 mph from West

Location: Yorkton

Current Time: Dec 4, 2016 at 12:34:29 pm

Latest Report: Dec 4, 2016 at 12:00 pm


Visibility: 9 mi

Pressure: 29.73 "Hg (27.89 "Hg at 505m altitude)

Humidity: 93%

Dew Point: 25 °F

Location of YorktonLocation

Past Weather in Yorkton — Graph

°F

Yorkton Temperature Yesterday

Maximum temperature yesterday: 27 °F (at 12:00 am)
Minimum temperature yesterday: 25 °F (at 10:00 am)
Average temperature yesterday: 26 °F

High & Low Weather Summary for the Past Weeks

 TemperatureHumidityPressure
High39 °F (Nov 26, 2:00 pm)100% (Nov 22, 7:02 am)30.48 "Hg (Nov 22, 7:02 am)
Low19 °F (Nov 21, 12:00 am)59% (Nov 20, 3:00 am)29.35 "Hg (Nov 28, 12:59 pm)
Average28 °F90%29.96 "Hg
* Reported Nov 19 11:00 am — Dec 4 11:00 am, Yorkton, Weather by CustomWeather, © 2016

Note: Actual official high and low records may vary slightly from our data, if they occured in-between our weather recording intervals... More about our weather records

Advertising

Yorkton Weather History for the Previous 24 Hours

Scroll right to see more
 ConditionsComfort  
Time TempWeatherWind HumidityBarometerVisibility
11:00 am
Sun, Dec 4
27 °FLow clouds.8 mph93%29.75 "Hg8 mi
10:00 am27 °FLow clouds.6 mph93%29.75 "Hg8 mi
9:00 am27 °FIce fog.9 mph93%29.75 "Hg4 mi
8:00 am27 °FIce fog.3 mph93%29.75 "Hg5 mi
7:54 am27 °FIce fog.3 mph93%29.75 "Hg5 mi
7:00 am25 °FIce fog.5 mph100%29.75 "Hg6 mi
6:00 am25 °FIce fog.6 mph100%29.76 "Hg6 mi
5:00 am25 °FLow clouds.8 mph100%29.76 "Hg7 mi
4:00 am27 °FIce fog.13 mph93%29.77 "Hg6 mi
3:55 am27 °FIce fog.14 mph93%29.77 "Hg6 mi
3:00 am27 °FLow clouds.14 mph93%29.77 "Hg9 mi
2:47 am28 °FMostly cloudy.12 mph93%29.77 "Hg9 mi
2:00 am28 °FIce fog.10 mph93%29.77 "Hg4 mi
1:00 am27 °FIce fog.5 mph100%29.77 "Hg6 mi
12:58 am27 °FIce fog.5 mph100%29.77 "Hg6 mi
12:00 am27 °FIce fog.3 mph93%29.77 "Hg5 mi
11:47 pm
Sat, Dec 3
27 °FLow clouds.3 mph93%29.77 "Hg9 mi
11:00 pm27 °FOvercast.6 mph93%29.76 "Hg9 mi
10:00 pm27 °FMostly cloudy.8 mph93%29.75 "Hg9 mi
9:00 pm27 °FOvercast.10 mph93%29.75 "Hg9 mi
8:00 pm27 °FOvercast.9 mph86%29.76 "Hg9 mi
7:00 pm27 °FLight snow. Overcast.13 mph86%29.77 "Hg9 mi
6:00 pm25 °FLight snow. Overcast.12 mph93%29.78 "Hg9 mi
5:00 pm25 °FLight snow. Mostly cloudy.13 mph93%29.78 "Hg6 mi
4:47 pm25 °FLight snow. Mostly cloudy.14 mph93%29.78 "Hg6 mi
4:02 pm25 °FLight snow. More clouds than sun.12 mph93%29.78 "Hg4 mi
3:00 pm27 °FLight snow. Overcast.17 mph80%29.78 "Hg8 mi
2:59 pm27 °FLight snow. Overcast.17 mph80%29.78 "Hg8 mi
2:00 pm25 °FScattered clouds.15 mph86%29.79 "Hg9 mi
1:00 pm25 °FPassing clouds.13 mph86%29.81 "Hg7 mi
12:00 pm27 °FSunny.15 mph86%29.83 "Hg9 mi
Weather by CustomWeather, © 2016

See weather overviewHow to use our weather pages